Temperature
20 19 19 19 18 18 19 20 20 21 22 22 22 21 20 20 20 18 18 18 18 18 18 18 18 18 18 18 18 18 18 18 18 18 18 18 18 18 18 18 18 18 18 18 18 18 18 18 18
20 19 19 19 18 19 20 20 20 21 22 22 22 21 20 19 19 18 18 18 18 18 18 18 18 18 18 18 18 18 18 18 18 18 18 18 18 18 18 18 18 18 18 18 18 18 18 18 18
19 19 19 17 19 19 20 20 20 22 23 23 22 21 20 19 19 18 18 18 18 18 18 18 18 18 18 18 18 18 18 18 18 18 18 18 18 18 18 17 17 17 17 17 17 17 18 18 18
19 19 19 18 19 20 20 20 21 22 22 22 21 20 20 20 19 19 18 18 18 18 18 18 18 18 18 18 18 18 18 18 18 18 17 17 17 17 17 17 17 17 17 17 17 17 17 17 17
19 19 18 18 19 20 20 20 21 22 22 21 21 19 19 19 19 19 19 18 18 18 18 18 18 18 18 18 18 18 18 18 17 17 17 17 17 17 17 17 17 17 17 17 17 17 17 17 17
20 18 18 18 19 20 20 20 21 21 21 21 20 19 19 19 19 19 19 19 19 18 18 18 18 18 18 18 18 18 17 17 17 17 17 17 17 16 17 16 16 17 17 17 17 17 17 17 17
19 17 18 19 19 19 19 20 21 21 21 21 20 19 19 19 19 19 19 19 19 19 18 18 18 18 18 18 17 17 17 17 17 17 17 16 16 16 16 16 16 16 16 16 16 16 16 17 17
20 17 19 18 19 19 19 20 21 22 21 21 21 19 19 19 19 19 19 19 19 18 18 18 18 18 18 17 17 17 17 17 17 16 16 16 16 16 16 16 16 16 16 16 16 16 16 16 17
20 17 18 19 19 19 19 20 21 22 22 21 21 21 20 19 19 19 19 18 18 18 18 18 18 18 18 17 17 17 17 17 17 16 16 16 16 16 16 16 16 16 16 16 16 16 16 16 16
19 17 19 19 19 19 19 20 21 21 21 20 21 20 20 20 19 19 19 19 19 19 18 18 18 18 18 18 17 17 17 17 17 16 16 16 16 16 16 16 16 15 15 16 16 16 16 16 16
19 18 19 20 20 20 20 20 21 21 19 20 20 20 20 20 19 19 19 19 19 19 19 18 18 18 18 18 17 17 17 17 17 16 16 16 16 16 16 16 15 15 15 15 16 16 16 16 16
19 20 20 20 20 20 20 21 20 21 21 21 21 21 20 20 20 20 20 19 19 19 19 19 18 18 18 18 17 17 17 17 17 16 16 16 16 16 16 15 15 15 15 15 15 15 16 16 16
20 20 21 21 21 21 20 20 21 21 21 21 21 20 20 20 20 20 20 20 19 19 19 19 18 18 18 18 17 17 17 17 17 16 16 16 16 16 16 15 15 15 15 15 15 15 16 16 16
20 20 20 21 21 20 21 20 21 21 21 21 21 20 21 20 20 20 20 20 19 19 19 19 18 18 18 18 18 17 17 17 17 16 16 16 16 16 15 15 15 15 15 15 15 15 15 15 15
21 20 20 20 21 21 21 20 20 21 21 21 20 21 21 21 21 20 20 20 20 19 19 19 19 18 18 18 18 17 17 17 16 16 16 16 16 15 15 15 15 15 15 15 15 15 15 15 15
20 19 19 20 20 21 21 19 20 21 21 21 21 21 21 21 21 21 21 20 20 20 19 19 19 18 18 18 18 17 17 17 16 16 16 16 15 15 15 15 15 15 15 15 15 15 15 15 15
18 18 18 19 20 21 20 19 20 21 21 21 21 21 21 21 21 21 21 20 20 20 19 19 19 18 18 18 17 17 17 17 16 16 16 16 15 15 15 15 15 15 15 15 15 15 15 15 15
18 18 19 19 20 20 19 19 19 21 21 21 21 21 21 21 21 21 21 20 20 20 20 19 19 18 18 18 17 17 17 17 16 16 16 16 15 15 15 15 15 15 15 15 15 15 15 15 15
19 19 19 19 20 20 19 19 19 20 20 20 20 20 21 21 21 21 21 20 20 20 20 19 19 19 18 18 18 17 17 16 16 16 16 16 15 15 15 15 15 15 15 14 14 14 14 15 15
19 18 18 19 20 20 19 19 19 19 19 20 20 20 21 21 21 21 21 20 20 20 20 19 19 19 18 18 18 17 17 16 16 16 16 15 15 15 15 15 15 14 14 14 14 14 14 14 14
19 19 19 19 19 19 19 18 18 19 19 20 20 21 21 21 21 21 20 20 20 20 20 19 19 19 18 18 18 17 17 17 16 16 16 15 15 15 15 15 14 14 14 14 14 14 14 14 14
19 20 20 19 18 17 18 17 18 18 18 19 19 20 20 20 21 21 20 20 20 20 20 19 19 19 18 18 18 17 17 17 16 16 16 15 15 15 15 15 14 14 14 14 14 14 14 14 14
19 20 20 19 17 17 17 17 17 18 18 18 18 19 20 20 20 20 20 20 20 20 20 19 19 19 18 18 18 17 17 17 16 16 16 16 15 15 15 15 14 14 14 14 14 14 14 14 14
20 19 19 17 17 17 18 17 17 17 18 18 18 19 20 20 20 20 20 20 20 20 19 19 19 19 18 18 18 17 17 17 17 16 16 16 15 15 15 15 15 14 14 14 14 14 14 14 14
19 17 17 17 16 17 18 18 17 18 19 19 19 19 20 20 20 20 20 20 20 19 19 19 19 19 18 18 18 17 17 17 17 16 16 16 16 15 15 15 15 14 14 14 14 14 14 14 14
19 18 17 17 17 17 18 18 18 19 19 20 20 20 20 20 20 20 20 20 20 19 19 19 19 18 18 18 18 17 17 17 17 16 16 16 16 15 15 15 15 15 14 14 14 14 14 13 14
18 17 17 17 17 17 17 18 19 19 18 18 19 19 19 19 20 20 20 20 19 19 19 19 19 18 18 18 18 17 17 17 17 16 16 16 16 15 15 15 15 15 14 14 14 14 14 14 14
18 18 16 17 17 17 18 18 17 18 18 18 18 18 19 19 19 19 19 19 19 19 19 19 18 18 18 18 17 17 17 17 17 16 16 16 16 15 15 15 15 15 14 14 14 14 14 14 14
19 18 17 16 17 17 17 18 19 19 18 18 18 18 19 19 19 19 19 19 19 19 19 18 18 18 18 17 17 17 17 17 16 16 16 16 16 15 15 15 15 15 14 14 14 14 14 14 14
20 20 18 17 17 16 17 18 20 19 18 18 18 18 19 19 19 19 19 19 19 19 18 18 18 18 18 17 17 17 17 16 16 16 16 16 16 15 15 15 15 15 15 14 14 14 14 14 14
Wind_Speed
3 1 2 2 3 3 0 1 1 0 1 3 7 9 8 6 5 6 4 11 13 10 10 13 13 13 13 13 12 12 12 12 11 11 11 10 10 9 8 8 7 6 6 6 5 5 4 4 4
1 1 2 3 3 1 2 2 2 2 5 7 8 8 7 6 6 8 6 12 13 11 11 12 14 13 13 13 13 12 12 11 11 10 10 9 8 8 8 7 6 6 5 5 5 4 4 4 3
2 1 2 2 2 3 3 3 3 1 3 4 5 5 5 5 6 6 9 14 12 11 12 14 15 14 14 13 12 12 11 11 10 9 9 8 7 7 7 6 6 5 5 4 4 4 3 3 3
2 3 3 2 1 2 3 4 3 3 4 5 7 6 4 3 5 9 14 15 13 10 12 14 15 14 13 13 12 11 11 10 9 8 8 7 7 7 6 6 5 5 4 4 3 3 3 3 3
3 3 3 1 2 1 2 3 3 4 3 5 8 6 4 4 13 17 15 14 14 10 11 14 15 14 13 12 11 10 10 9 8 7 6 6 5 5 5 4 4 3 3 3 3 3 3 3 4
3 3 2 0 2 2 2 2 2 7 7 7 8 7 4 6 13 14 14 13 13 11 10 13 14 14 13 12 11 9 9 8 7 6 4 4 3 3 3 2 2 2 2 2 2 3 4 5 5
3 3 2 2 1 1 2 3 1 5 6 5 6 6 5 6 11 14 13 12 11 10 9 9 11 12 12 11 10 9 7 6 5 4 3 2 1 1 0 1 1 1 1 2 3 4 5 6 6
4 3 0 1 2 1 2 2 1 5 4 5 5 8 7 9 10 12 11 10 10 9 8 7 8 9 9 9 9 8 6 5 4 2 1 1 1 2 3 3 3 3 3 4 4 6 7 7 7
4 3 1 2 4 3 2 0 1 3 5 2 3 6 10 13 12 11 9 7 8 8 7 6 6 7 8 8 8 7 5 4 2 1 1 1 2 3 4 4 4 4 5 5 6 7 8 7 7
4 3 4 3 4 4 2 1 1 3 5 6 8 9 12 13 13 12 11 10 9 9 8 7 7 6 7 6 6 4 3 2 1 1 1 2 2 3 2 3 3 4 5 6 7 8 7 6 5
4 5 3 2 3 3 1 1 1 6 5 9 14 14 12 12 12 11 10 10 9 9 8 8 7 6 6 4 4 3 2 1 1 1 0 1 3 3 3 3 4 5 5 5 7 7 5 4 3
3 4 4 3 3 3 3 2 2 3 6 10 14 15 13 12 11 11 10 9 8 8 8 8 7 6 5 4 3 3 2 1 0 1 1 3 2 3 3 2 3 3 3 4 4 3 4 4 3
3 3 2 4 4 3 2 3 5 4 7 10 13 13 14 13 11 10 9 9 9 8 7 8 8 7 5 4 2 3 2 2 2 3 4 4 3 2 2 2 3 3 4 3 3 3 3 3 3
4 4 2 3 3 3 4 2 3 5 9 12 13 12 12 13 12 9 9 8 9 8 8 7 8 7 6 4 3 2 3 3 3 4 4 5 4 2 2 3 3 4 4 4 3 3 3 2 2
3 1 1 3 3 4 5 1 4 7 10 12 11 10 10 11 11 11 11 10 9 9 9 9 8 7 7 5 4 3 3 4 3 3 5 6 5 4 3 3 3 3 5 4 4 4 3 3 3
2 2 1 3 1 2 5 3 5 6 9 10 9 9 9 10 11 11 11 10 9 9 8 8 9 7 6 5 4 3 4 4 3 4 5 5 6 5 4 3 2 3 5 4 3 3 3 4 3
2 2 3 3 2 2 4 4 4 4 8 9 9 9 9 8 8 10 10 10 10 10 9 8 8 7 6 6 4 4 4 3 3 4 4 4 5 5 4 2 2 4 3 3 3 3 2 2 3
4 3 3 3 1 3 4 3 3 2 6 7 7 8 9 9 9 10 9 9 9 9 9 9 8 7 7 5 4 3 3 2 2 3 3 4 5 5 4 2 3 4 3 4 3 3 3 2 2
3 3 2 3 2 2 5 5 4 2 4 4 5 7 8 6 6 7 9 9 8 8 8 8 8 6 5 4 3 3 2 1 1 1 3 4 4 5 4 3 3 3 3 3 3 2 4 3 3
3 3 3 2 2 2 3 2 2 2 4 6 7 7 8 6 6 6 7 8 8 8 8 8 8 6 5 4 3 2 2 1 1 1 2 2 3 3 3 3 2 2 3 4 4 3 2 3 3
4 6 5 3 1 2 4 2 3 2 1 3 4 6 8 11 11 9 8 7 8 8 8 8 8 7 5 5 4 4 4 3 3 2 1 1 1 2 2 2 2 2 2 2 2 2 2 2 3
5 7 7 6 4 1 2 1 4 2 2 3 4 5 6 7 8 8 8 7 8 8 7 8 8 7 5 6 5 5 3 2 2 1 1 1 1 1 1 2 2 2 1 1 2 1 1 1 2
5 4 5 5 5 2 1 3 5 2 4 5 6 7 7 7 9 9 9 8 7 7 7 7 7 6 5 5 6 6 4 2 1 0 0 1 1 1 0 1 2 1 1 1 2 2 2 1 1
5 6 6 4 4 0 3 3 4 4 7 6 6 7 8 8 8 7 6 7 6 5 6 6 7 5 5 5 5 6 5 4 2 1 1 1 1 2 2 0 0 0 1 1 1 1 2 1 1
5 6 3 2 2 3 2 3 6 6 7 9 10 9 8 8 8 8 7 7 7 6 6 6 6 5 4 5 4 5 5 5 4 3 2 1 1 1 2 1 1 1 1 1 1 1 1 1 1
4 7 6 5 4 2 0 3 5 4 5 7 8 8 8 8 8 8 8 8 7 7 6 6 6 4 4 4 4 4 4 3 3 3 3 3 2 3 2 2 1 1 1 0 0 0 1 1 1
5 4 6 5 3 1 1 2 4 3 5 6 8 8 9 8 8 8 7 7 6 6 6 6 6 5 4 4 3 3 3 3 3 3 2 2 2 2 2 2 1 1 1 1 0 1 1 1 1
5 6 5 5 4 2 1 3 5 6 7 7 8 9 9 8 7 7 6 5 5 5 4 4 5 4 3 3 3 3 2 2 2 2 1 2 2 1 1 1 1 1 1 1 0 1 1 1 2
4 3 5 4 4 5 3 5 6 11 11 11 10 10 10 9 8 7 6 5 5 5 5 4 4 3 3 3 2 3 2 1 1 1 1 1 1 1 2 2 1 2 1 1 1 2 1 1 2
6 6 7 5 3 3 3 5 4 9 9 11 10 9 9 8 8 7 6 5 5 5 4 4 4 3 3 3 3 3 2 2 2 0 1 1 1 1 1 1 1 1 1 1 1 2 2 1 2
Wind_Direction
228 154 94 62 56 51 295 265 219 329 75 72 81 88 84 66 97 128 139 136 130 132 131 126 121 117 113 110 108 105 102 99 95 92 89 86 83 81 78 76 74 71 71 71 70 70 66 62 54
180 132 70 62 85 93 246 228 171 198 150 123 89 85 79 74 88 111 123 134 132 132 129 126 123 120 117 114 110 106 103 100 97 93 89 86 81 78 75 71 67 65 65 62 62 59 51 46 40
202 163 108 83 136 180 200 219 203 212 145 125 90 65 79 110 114 129 144 138 131 129 128 128 125 123 120 116 112 109 105 102 99 96 91 86 81 76 72 67 64 62 60 59 57 51 35 25 19
84 51 55 73 226 220 199 220 202 115 83 82 100 72 60 98 129 133 137 136 131 130 132 133 129 126 123 119 116 112 108 105 102 99 95 89 83 78 72 68 64 61 56 51 47 35 19 4 344
66 77 51 14 274 275 253 244 198 117 91 85 94 90 67 65 117 129 135 136 134 135 137 138 135 132 129 125 121 117 113 109 107 104 99 93 86 80 74 70 62 54 44 32 24 8 351 332 318
59 71 91 219 274 324 324 303 117 99 108 100 100 106 102 128 129 138 139 139 140 141 142 143 143 140 136 133 129 126 122 119 117 114 110 103 94 82 75 75 62 37 17 3 351 338 329 320 312
118 108 171 193 172 346 324 329 71 130 133 135 129 108 128 149 146 145 143 140 139 142 143 145 148 146 143 142 140 139 137 136 134 126 121 123 139 163 187 240 259 286 300 311 316 313 312 312 306
136 108 86 202 152 215 273 330 153 125 118 129 129 133 158 175 155 140 135 135 139 145 149 151 154 153 151 154 153 153 154 157 163 161 151 210 275 266 269 269 266 270 285 296 303 304 305 305 305
106 86 188 201 171 200 243 21 358 72 109 97 100 137 153 152 139 128 127 131 142 149 156 159 161 166 167 169 171 168 166 171 181 203 253 287 312 306 283 276 267 276 291 303 306 306 304 305 310
114 148 214 204 168 174 186 199 203 94 92 92 95 111 133 139 138 140 146 152 157 162 167 169 167 170 176 178 166 170 176 188 194 231 295 329 327 314 312 301 291 301 313 318 317 318 317 311 315
162 184 206 199 157 154 164 201 172 130 132 147 142 146 145 144 145 150 158 160 166 167 165 169 171 166 166 162 155 160 160 174 248 277 307 43 39 29 29 14 348 346 344 339 333 341 341 328 321
187 214 192 178 158 146 174 174 125 146 177 165 154 152 152 154 159 163 164 165 162 156 162 169 165 156 158 149 151 157 151 147 96 46 99 91 71 48 40 27 4 360 352 345 344 343 338 333 333
217 228 227 190 160 151 166 162 145 167 156 149 148 150 158 163 172 174 169 161 155 157 161 158 151 151 148 138 151 139 141 136 106 74 76 89 82 60 43 22 21 12 11 3 351 356 356 351 354
206 186 217 222 181 176 151 167 137 178 154 154 155 161 169 171 174 170 166 161 159 161 157 150 146 149 141 142 138 134 133 120 88 70 74 83 87 75 50 25 13 6 11 13 5 9 13 2 7
186 140 312 243 191 175 135 135 187 176 160 161 166 170 172 177 174 173 173 165 164 158 150 144 145 141 135 133 134 122 119 109 92 76 76 79 76 71 63 41 13 0 10 13 15 15 21 18 14
117 105 247 275 199 200 136 195 221 176 163 168 172 177 176 179 178 176 171 167 165 152 147 146 143 134 127 125 120 111 109 106 102 88 78 72 71 74 71 50 10 4 19 19 19 17 17 14 9
62 167 215 274 262 187 142 194 241 182 165 173 176 180 178 173 174 173 168 165 162 154 145 139 135 133 129 123 114 104 98 97 100 91 81 72 68 70 73 52 12 22 30 21 18 30 26 12 357
197 188 211 220 270 129 141 207 252 185 163 171 173 174 169 167 177 171 161 160 156 150 142 140 137 137 129 113 97 80 71 64 72 84 87 81 71 66 63 47 24 31 37 22 18 19 20 15 353
186 170 206 234 243 137 164 193 230 201 156 164 165 167 165 172 171 161 153 153 147 144 143 146 143 146 130 115 112 106 104 91 60 74 95 92 81 72 66 48 31 30 38 21 15 24 22 10 12
189 178 221 268 256 163 149 193 243 207 178 175 165 166 163 149 143 148 148 152 152 157 156 153 151 150 145 146 142 142 138 140 119 45 58 76 83 72 69 62 41 30 32 23 22 38 28 3 23
213 200 200 180 42 64 100 355 288 285 147 137 146 160 159 163 160 158 151 152 150 154 162 161 161 156 152 140 112 87 66 49 34 24 359 345 62 72 69 65 62 39 50 25 9 40 61 14 355
219 207 184 164 129 191 141 183 272 225 145 146 153 157 161 161 153 156 152 155 159 164 162 155 154 152 148 136 133 133 134 148 209 221 257 307 23 67 80 75 71 57 47 25 351 53 85 85 8
196 171 149 139 129 108 76 137 273 216 178 194 181 169 170 165 160 162 162 163 161 158 155 156 151 154 150 142 146 140 142 168 188 117 46 347 337 328 358 75 76 59 30 9 7 19 47 92 114
151 89 77 65 78 81 222 159 251 218 194 187 187 178 175 169 166 159 152 145 146 143 141 146 147 155 152 145 148 150 154 154 142 137 184 309 325 323 315 41 74 31 13 2 3 15 40 56 96
110 101 76 44 45 252 214 161 239 229 194 179 181 184 176 166 161 153 147 149 150 146 144 144 144 149 153 150 158 163 163 163 171 187 196 212 274 283 273 271 261 263 273 291 24 35 18 17 22
156 136 154 170 181 252 4 217 255 236 181 169 166 165 158 160 160 159 160 158 158 155 149 143 146 153 160 158 169 175 171 171 187 194 193 205 216 233 238 231 242 251 272 285 95 9 322 345 340
132 148 161 126 122 110 253 269 326 81 125 143 145 147 155 161 160 160 159 157 157 157 158 155 153 156 162 163 155 160 171 182 193 198 192 209 226 230 222 227 237 248 266 256 162 319 305 333 331
143 145 111 124 146 154 245 241 213 184 167 157 155 157 158 156 153 152 149 150 149 147 143 140 147 157 157 153 158 153 164 173 178 165 198 229 243 233 211 241 247 246 259 262 239 293 298 330 315
135 125 122 116 145 148 184 254 220 190 173 162 165 163 159 157 154 152 152 154 143 128 123 126 132 129 137 148 140 129 141 134 118 124 219 243 255 234 220 232 234 240 261 276 257 278 291 312 314
164 171 150 147 176 157 163 258 262 175 164 157 159 159 157 153 148 145 143 135 126 129 130 129 132 138 149 141 125 133 128 106 92 76 292 280 273 272 245 243 258 271 292 301 243 286 292 284 292
Height
1508 1508 1508 1509 1510 1516 1516 1510 1504 1502 1501 1500 1499 1500 1503 1507 1510 1518 1517 1516 1518 1519 1520 1522 1522 1523 1523 1523 1524 1524 1524 1524 1525 1525 1525 1525 1525 1525 1525 1526 1526 1526 1526 1526 1526 1526 1526 1526 1526
1508 1508 1509 1508 1514 1523 1517 1507 1505 1501 1501 1500 1501 1503 1505 1509 1510 1513 1515 1517 1518 1520 1521 1522 1523 1523 1524 1524 1525 1525 1525 1525 1525 1525 1525 1525 1525 1525 1525 1525 1525 1525 1525 1525 1525 1525 1525 1526 1526
1507 1507 1508 1509 1514 1519 1514 1505 1502 1500 1499 1499 1502 1505 1507 1510 1512 1513 1515 1517 1519 1521 1522 1523 1524 1524 1525 1525 1525 1525 1525 1525 1525 1525 1525 1525 1525 1525 1525 1525 1525 1525 1525 1525 1524 1525 1525 1525 1525
1507 1508 1508 1512 1513 1509 1506 1503 1500 1499 1500 1501 1502 1507 1510 1512 1512 1514 1516 1518 1520 1522 1523 1524 1525 1525 1526 1526 1526 1526 1526 1526 1526 1526 1526 1526 1525 1525 1525 1524 1524 1524 1524 1524 1524 1524 1524 1524 1524
1506 1507 1511 1514 1511 1506 1503 1501 1500 1499 1501 1503 1503 1509 1512 1514 1514 1515 1518 1520 1521 1523 1524 1525 1526 1526 1527 1527 1527 1527 1527 1527 1526 1526 1526 1526 1526 1525 1525 1524 1524 1524 1524 1523 1523 1523 1523 1523 1523
1506 1507 1516 1518 1511 1506 1503 1502 1500 1501 1503 1505 1506 1510 1514 1516 1516 1518 1519 1521 1523 1524 1525 1526 1527 1527 1528 1528 1528 1528 1528 1527 1527 1527 1527 1527 1526 1526 1525 1525 1524 1524 1523 1523 1523 1523 1523 1523 1523
1507 1509 1514 1513 1512 1509 1505 1502 1501 1502 1504 1506 1507 1511 1515 1517 1518 1519 1521 1522 1524 1525 1526 1527 1528 1528 1529 1529 1529 1529 1529 1528 1528 1528 1528 1527 1527 1526 1526 1525 1524 1524 1523 1523 1523 1522 1522 1522 1522
1505 1509 1512 1512 1512 1510 1504 1502 1501 1501 1504 1506 1507 1509 1513 1516 1518 1520 1522 1524 1525 1526 1527 1528 1529 1529 1530 1530 1530 1530 1530 1529 1529 1529 1529 1528 1527 1527 1526 1525 1524 1524 1523 1523 1522 1522 1522 1521 1521
1504 1512 1515 1511 1510 1508 1504 1503 1502 1502 1503 1505 1506 1507 1510 1515 1518 1521 1523 1525 1526 1527 1528 1529 1530 1530 1531 1531 1531 1531 1531 1530 1530 1530 1529 1528 1527 1527 1526 1525 1525 1524 1523 1523 1522 1522 1521 1521 1521
1504 1512 1509 1503 1503 1504 1504 1503 1503 1504 1505 1506 1507 1510 1512 1516 1518 1520 1522 1524 1526 1527 1528 1529 1530 1531 1531 1532 1532 1532 1532 1531 1531 1530 1529 1529 1528 1527 1526 1525 1525 1524 1523 1522 1522 1521 1521 1520 1520
1502 1506 1502 1501 1501 1502 1503 1502 1503 1505 1507 1506 1507 1510 1513 1516 1519 1521 1522 1524 1526 1527 1529 1530 1531 1531 1532 1532 1532 1532 1532 1532 1531 1530 1529 1529 1528 1527 1526 1525 1524 1524 1523 1522 1521 1521 1520 1520 1519
1501 1500 1500 1500 1500 1501 1503 1503 1504 1504 1506 1506 1507 1510 1513 1516 1518 1520 1522 1524 1526 1528 1529 1530 1531 1532 1532 1533 1533 1533 1533 1532 1531 1531 1530 1529 1528 1527 1526 1525 1524 1523 1522 1522 1521 1520 1520 1519 1519
1500 1500 1499 1499 1499 1500 1502 1502 1503 1504 1505 1507 1509 1511 1513 1515 1518 1520 1522 1524 1526 1528 1529 1530 1531 1532 1532 1533 1533 1533 1533 1532 1532 1531 1530 1529 1528 1527 1526 1525 1524 1523 1522 1521 1521 1520 1519 1519 1518
1498 1498 1499 1499 1500 1501 1502 1503 1503 1504 1505 1507 1509 1511 1513 1515 1518 1520 1522 1524 1526 1527 1529 1530 1531 1532 1532 1533 1533 1533 1533 1532 1532 1531 1530 1529 1528 1527 1525 1524 1523 1522 1522 1521 1520 1519 1519 1518 1518
1496 1498 1500 1499 1499 1501 1501 1505 1503 1503 1505 1507 1509 1511 1513 1515 1517 1519 1521 1523 1525 1527 1529 1530 1531 1532 1532 1533 1533 1533 1533 1532 1532 1531 1530 1529 1528 1526 1525 1524 1523 1522 1521 1520 1520 1519 1518 1518 1517
1496 1502 1507 1500 1498 1499 1504 1511 1502 1503 1505 1507 1509 1511 1513 1514 1516 1519 1521 1523 1525 1527 1529 1530 1531 1532 1532 1533 1533 1533 1533 1532 1532 1531 1530 1529 1528 1526 1525 1524 1523 1522 1521 1520 1519 1518 1518 1517 1516
1503 1510 1509 1503 1498 1498 1503 1508 1502 1502 1504 1506 1508 1510 1512 1514 1516 1519 1521 1523 1525 1527 1528 1530 1531 1532 1532 1533 1533 1533 1533 1532 1532 1531 1530 1529 1528 1527 1525 1524 1523 1522 1521 1519 1518 1518 1517 1517 1516
1510 1509 1507 1506 1500 1500 1504 1506 1502 1502 1503 1505 1507 1509 1511 1513 1515 1518 1520 1523 1525 1527 1528 1530 1531 1532 1532 1533 1533 1533 1533 1532 1532 1531 1530 1529 1528 1527 1526 1524 1523 1522 1521 1519 1518 1518 1517 1516 1516
1501 1504 1507 1504 1499 1501 1504 1505 1503 1502 1503 1504 1506 1508 1510 1512 1515 1518 1520 1522 1525 1527 1528 1530 1531 1531 1532 1532 1532 1532 1532 1532 1532 1531 1530 1530 1528 1527 1526 1525 1523 1522 1521 1520 1519 1518 1517 1516 1516
1499 1505 1506 1503 1498 1501 1506 1507 1504 1502 1502 1503 1504 1506 1509 1511 1514 1517 1520 1522 1524 1526 1528 1529 1530 1531 1531 1532 1532 1532 1532 1532 1532 1531 1530 1530 1529 1527 1526 1525 1524 1522 1521 1520 1519 1518 1517 1517 1517
1499 1503 1504 1505 1503 1502 1507 1513 1508 1504 1503 1504 1505 1506 1508 1510 1512 1515 1518 1521 1523 1525 1527 1528 1529 1530 1531 1531 1532 1532 1532 1532 1532 1531 1530 1530 1529 1528 1527 1525 1524 1523 1522 1520 1519 1518 1518 1517 1517
1502 1494 1496 1501 1510 1516 1512 1525 1513 1507 1505 1505 1505 1506 1508 1510 1512 1514 1517 1520 1522 1524 1526 1527 1528 1530 1530 1531 1531 1532 1532 1531 1531 1531 1530 1530 1529 1528 1527 1526 1525 1523 1522 1521 1520 1519 1518 1518 1517
1495 1491 1495 1501 1510 1517 1516 1523 1518 1507 1508 1506 1505 1506 1507 1510 1512 1514 1516 1519 1521 1523 1525 1527 1528 1529 1530 1530 1531 1531 1531 1531 1531 1531 1530 1530 1529 1528 1527 1526 1525 1523 1522 1521 1520 1519 1519 1518 1518
1489 1494 1500 1506 1513 1525 1518 1522 1520 1510 1505 1503 1503 1505 1506 1509 1511 1514 1516 1519 1521 1523 1524 1526 1527 1528 1529 1530 1530 1531 1531 1531 1531 1531 1530 1530 1529 1528 1527 1526 1525 1524 1523 1521 1520 1519 1519 1518 1517
1491 1505 1520 1525 1530 1527 1513 1517 1514 1499 1497 1498 1500 1502 1505 1507 1510 1513 1515 1517 1519 1521 1523 1525 1526 1527 1528 1529 1530 1530 1531 1531 1530 1530 1530 1530 1529 1528 1527 1526 1525 1524 1523 1522 1521 1520 1519 1518 1517
1493 1501 1520 1529 1531 1525 1515 1517 1505 1493 1493 1495 1497 1500 1504 1507 1509 1511 1514 1516 1519 1520 1522 1524 1525 1526 1527 1528 1529 1529 1530 1530 1530 1530 1530 1529 1529 1528 1527 1526 1526 1524 1523 1522 1521 1520 1519 1518 1517
1494 1501 1501 1513 1519 1525 1520 1510 1500 1493 1494 1496 1498 1500 1503 1506 1508 1511 1513 1515 1518 1520 1521 1523 1524 1525 1526 1527 1528 1528 1529 1529 1529 1529 1529 1529 1529 1528 1527 1526 1526 1524 1523 1522 1521 1520 1519 1518 1517
1486 1492 1504 1513 1523 1529 1521 1514 1510 1500 1497 1496 1497 1500 1502 1505 1508 1510 1512 1515 1517 1519 1521 1522 1523 1524 1525 1526 1527 1527 1528 1528 1529 1529 1529 1528 1528 1527 1527 1526 1525 1524 1523 1522 1521 1520 1519 1518 1517
1490 1494 1499 1509 1512 1525 1529 1518 1491 1492 1491 1494 1496 1498 1501 1504 1506 1509 1512 1514 1516 1518 1520 1521 1522 1523 1524 1525 1526 1526 1527 1527 1528 1528 1528 1527 1527 1527 1526 1525 1524 1523 1523 1522 1521 1520 1519 1518 1517
1480 1485 1494 1508 1513 1514 1519 1513 1484 1486 1489 1491 1495 1498 1500 1503 1506 1509 1511 1514 1516 1517 1519 1520 1521 1522 1523 1524 1525 1525 1526 1526 1526 1526 1526 1526 1526 1525 1525 1524 1523 1523 1522 1521 1520 1519 1518 1517 1516